Location: Unspecified
(50.0830°N, 0.0000°E)
Time: 02:13:15
(UTC+00:00)

Envisat - Pass Details

Date: 26 November 2019
Orbit: 764 x 766 km, 98.1° (Epoch: 07 December)

Event Time Altitude Azimuth Distance (km) Brightness Sun altitude
Rises 19:38:07 0° 224° (SW) 3,224 6.7 -33.6°
Reaches altitude 10° 19:42:17 10° 258° (WSW) 2,305 6.2 -34.3°
Maximum altitude 19:43:51 11° 276° (W) 2,215 6.2 -34.5°
Drops below altitude 10° 19:45:26 10° 294° (WNW) 2,310 6.2 -34.8°
Sets 19:49:39 0° 328° (NNW) 3,243 6.7 -35.4°
